NOAA 16 DEB, 41510

Orbit data source: Space-Track

NOAA 16 DEB, 41510 is space debris in SSO originally from a launch on Thu, 21 Sep 2000 UTC launched from the Air Force Western Test Range (AFWTR). Debris objects in space refer to the collection of defunct objects orbiting the Earth. Examples of debris include non-operational satellites, rocket bodies, and fragments generated from explosions, collisions, or faulty payload assembly.

Loading next visibility...
Identifier
41510, 2000-055MJ
Orbit
SSO
Country
Flag of USUS
Related business
Manufacturer
Unknown
Mission
Spacecraft
Bus & Motor
Unknown
Mass
Unknown
Launch date (UTC)
2000-09-21 (25 years ago)
Launch vehicle
Unknown
Launch site
Air Force Western Test Range (AFWTR)
Object type
Payload
Rocket body
Debris
Shape & HBR
Unknown shape, 0.1 m
Radar Cross Section
Small (<0.1 m²)

Expand to show TLE details & history
Last TLE update: 22 hours ago

TLE from 22 hours ago
0 NOAA 16 DEB
1 41510U 00055MJ  25290.69721684  .00005844  00000-0  23892-2 0  9999
2 41510  98.7634  18.4050 0022259   0.2129 359.9057 14.27501622494760
Epoch: 2025-10-17T16:43Z
TLE epoch observation values (Epoch: 2025-10-17T16:43:59.534Z)
Latitude
-0.00007°
Longitude
100.96808°
Altitude
787.036 km
Speed
7.469 km/s
True Right ascension
01h 13m 37s
True Declination
0° 00' 00"
Sunlit
Object was in full shadow at epoch
Visualization orbit readout
Latitude
Unknown
Longitude
Unknown
Altitude
Unknown
Speed
Unknown
Apparent Right ascension
Unknown
Apparent Declination
Unknown
Sunlit
N/A
Visualization observer readout
Local Sidereal Time
09:10:15
Azimuth
Unknown
Elevation
Unknown
Doppler factor
Unknown
Orbital elements
Apogee altitude
813.217 km
Perigee altitude
781.274 km
Semi-major axis
7,175.382 km
Eccentricity
0.00223
Inclination
98.7634°
RAAN
18.405°
Arg. of periapsis
0.2129°
True anomaly
359.90528°
Mean anomaly
359.9057°
Eccentric anomaly
359.90549°
Mean motion
3.57088 °/min
Orbital period
100.82 mins
BSTAR
0.0023892
Loading maneuver chart data...
Computing Atmospheric mass density...

Documentation

Showing up to 5 results
|